Date String (YYYY-MM-DD hh:mm:ss) UTC,Instrument flags,Ambient pressure (hPa),Sample flow (lpm),Bypass flow (lpm),Sample temperature (°C),Ambient temperature (°C),ASC tube jacket temperature (°C),LED temperature (°C),Box temperature (°C),Sample RH (%),Span deviation,Mass concentration (μg/m³),Mass concentration (μg/m³),Mass concentration (μg/m³)
DateTimeUTC,F1_M11,P_M11,Q1_M11,Q2_M11,T1_M11,T2_M11,T3_M11,T4_M11,T5_M11,U1_M11,ZSPAN_M11,X0_M11,X2_M11,X1_M11
2023-02-18 19:00:00,,0818.9,4.99,0.00,22.3,20.9,00.0,31.2,24.1,04.5,0000.0,0002.91,0001.35,0000.82
2023-02-18 19:01:00,,0819.0,5.02,0.00,22.3,20.9,00.0,31.2,24.2,04.8,0000.0,0002.89,0001.35,0000.82
2023-02-18 19:02:00,,0819.0,5.02,0.00,22.3,20.9,00.0,31.2,24.1,04.5,0000.0,0002.91,0001.33,0000.81
2023-02-18 19:03:00,,0819.0,5.00,0.00,22.3,20.9,00.0,31.2,24.2,04.3,0000.0,0002.99,0001.36,0000.80
2023-02-18 19:04:00,,0818.9,4.99,0.00,22.3,20.9,00.0,31.2,24.2,04.6,0000.0,0002.96,0001.36,0000.78
2023-02-18 19:05:00,,0818.7,5.00,0.00,22.3,20.9,00.0,31.2,24.2,05.0,0000.0,0002.87,0001.33,0000.77
2023-02-18 19:06:00,,0818.7,5.00,0.00,22.3,20.8,00.0,31.2,24.1,05.2,0000.0,0002.65,0001.32,0000.78
2023-02-18 19:07:00,,0818.7,4.99,0.00,22.3,20.8,00.0,31.2,24.1,04.0,0000.0,0002.61,0001.32,0000.78
2023-02-18 19:08:00,,0818.6,5.00,0.00,22.3,20.7,00.0,31.2,24.1,04.4,0000.0,0002.55,0001.33,0000.78
2023-02-18 19:09:00,,0818.6,5.01,0.00,22.3,20.6,00.0,31.2,24.0,04.5,0000.0,0002.63,0001.35,0000.79
2023-02-18 19:10:00,,0818.5,5.00,0.00,22.3,20.6,00.0,31.2,24.0,04.7,0000.0,0002.96,0001.36,0000.79
2023-02-18 19:11:00,,0818.4,5.02,0.00,22.3,20.6,00.0,31.2,24.0,04.1,0000.0,0003.04,0001.41,0000.80
2023-02-18 19:12:00,,0818.4,5.00,0.00,22.2,20.5,00.0,31.2,23.9,04.8,0000.0,0004.17,0001.44,0000.80
2023-02-18 19:13:00,,0818.4,5.00,0.00,22.2,20.5,00.0,31.1,23.9,04.3,0000.0,0004.54,0001.47,0000.80
2023-02-18 19:14:00,,0818.4,5.00,0.00,22.2,20.5,00.0,31.1,23.9,04.5,0000.0,0004.84,0001.48,0000.79
2023-02-18 19:15:00,,0818.4,4.99,0.00,22.2,20.4,00.0,31.1,23.9,05.4,0000.0,0004.82,0001.44,0000.79
2023-02-18 19:16:00,,0818.4,5.00,0.00,22.2,20.4,00.0,31.1,23.9,05.1,0000.0,0004.82,0001.45,0000.79
2023-02-18 19:17:00,,0818.4,5.00,0.00,22.2,20.4,00.0,31.1,23.9,05.4,0000.0,0004.96,0001.51,0000.78
2023-02-18 19:18:00,,0818.4,5.02,0.00,22.1,20.4,00.0,31.1,23.9,04.7,0000.0,0005.02,0001.54,0000.78
2023-02-18 19:19:00,,0818.4,5.00,0.00,22.1,20.4,00.0,31.1,23.9,04.9,0000.0,0005.21,0001.59,0000.79
2023-02-18 19:20:00,,0818.4,5.00,0.00,22.1,20.5,00.0,31.1,23.9,05.1,0000.0,0005.12,0001.57,0000.78
2023-02-18 19:21:00,,0818.3,5.01,0.00,22.1,20.5,00.0,31.1,23.9,04.8,0000.0,0004.79,0001.55,0000.78
2023-02-18 19:22:00,,0818.2,5.01,0.00,22.1,20.5,00.0,31.1,23.8,04.7,0000.0,0004.71,0001.52,0000.79
2023-02-18 19:23:00,,0818.2,5.01,0.00,22.1,20.5,00.0,31.0,23.9,04.6,0000.0,0003.97,0001.52,0000.79
2023-02-18 19:24:00,,0818.2,5.01,0.00,22.1,20.5,00.0,31.0,23.9,04.5,0000.0,0003.70,0001.50,0000.79
2023-02-18 19:25:00,,0818.2,5.00,0.00,22.1,20.5,00.0,31.0,23.9,04.5,0000.0,0003.16,0001.47,0000.79
2023-02-18 19:26:00,,0818.1,5.00,0.00,22.1,20.5,00.0,31.0,23.9,04.3,0000.0,0003.01,0001.45,0000.80
2023-02-18 19:27:00,,0818.0,5.00,0.00,22.1,20.5,00.0,31.0,23.8,04.5,0000.0,0003.03,0001.45,0000.81
2023-02-18 19:28:00,,0818.0,5.00,0.00,22.1,20.5,00.0,31.0,23.8,04.4,0000.0,0003.01,0001.42,0000.82
2023-02-18 19:29:00,,0818.0,5.00,0.00,22.0,20.4,00.0,31.0,23.8,04.8,0000.0,0003.09,0001.38,0000.84
2023-02-18 19:30:00,,0818.0,4.99,0.00,22.0,20.4,00.0,31.0,23.7,04.7,0000.0,0002.98,0001.37,0000.85
2023-02-18 19:31:00,,0818.0,5.00,0.00,22.0,20.3,00.0,31.0,23.8,04.4,0000.0,0003.03,0001.37,0000.86
2023-02-18 19:32:00,,0818.0,5.00,0.00,22.0,20.3,00.0,30.9,23.8,04.3,0000.0,0003.39,0001.43,0000.87
2023-02-18 19:33:00,,0818.0,5.01,0.00,22.0,20.3,00.0,30.9,23.8,04.2,0000.0,0003.40,0001.45,0000.88
2023-02-18 19:34:00,,0818.0,5.01,0.00,22.0,20.3,00.0,30.9,23.7,04.7,0000.0,0003.40,0001.46,0000.90
2023-02-18 19:35:00,,0818.0,4.98,0.00,22.0,20.3,00.0,30.9,23.7,04.5,0000.0,0003.26,0001.49,0000.90
2023-02-18 19:36:00,,0818.0,5.01,0.00,22.0,20.3,00.0,30.9,23.7,04.8,0000.0,0003.24,0001.50,0000.90
2023-02-18 19:37:00,,0818.0,4.99,0.00,22.0,20.3,00.0,30.9,23.7,04.6,0000.0,0003.25,0001.50,0000.90
2023-02-18 19:38:00,,0818.0,5.01,0.00,22.0,20.4,00.0,30.9,23.8,05.0,0000.0,0003.23,0001.52,0000.90
2023-02-18 19:39:00,,0818.0,4.96,0.00,22.0,21.3,00.0,30.8,23.9,05.2,0000.0,0004.54,0001.59,0000.91
2023-02-18 19:40:00,,0817.9,4.95,0.00,22.1,22.5,00.0,30.8,24.2,04.9,0000.0,0004.78,0001.66,0000.91
2023-02-18 19:41:00,,0817.9,4.97,0.00,22.2,22.6,00.0,30.9,24.3,04.6,0000.0,0004.65,0001.65,0000.90
2023-02-18 19:42:00,,0817.9,4.98,0.00,22.3,22.2,00.0,30.9,24.2,04.1,0000.0,0004.73,0001.66,0000.90
2023-02-18 19:43:00,,0817.9,5.00,0.00,22.3,21.8,00.0,31.0,24.2,04.6,0000.0,0004.68,0001.64,0000.90
2023-02-18 19:44:00,,0817.9,4.98,0.00,22.3,21.6,00.0,31.0,24.1,04.9,0000.0,0004.90,0001.69,0000.91
2023-02-18 19:45:00,,0817.8,5.01,0.00,22.3,21.4,00.0,31.0,24.1,04.9,0000.0,0005.07,0001.72,0000.91
2023-02-18 19:46:00,,0817.8,5.01,0.00,22.3,21.2,00.0,31.1,24.1,05.3,0000.0,0005.09,0001.72,0000.91
2023-02-18 19:47:00,,0817.8,4.99,0.00,22.3,21.1,00.0,31.1,24.1,04.0,0000.0,0005.13,0001.73,0000.92
2023-02-18 19:48:00,,0817.8,5.01,0.00,22.3,21.0,00.0,31.1,24.1,04.4,0000.0,0005.27,0001.83,0000.94
2023-02-18 19:49:00,,0817.7,5.01,0.00,22.3,20.9,00.0,31.1,24.1,04.7,0000.0,0005.40,0001.88,0000.96
2023-02-18 19:50:00,,0817.7,5.01,0.00,22.3,20.8,00.0,31.1,24.0,04.7,0000.0,0004.55,0001.86,0000.97
2023-02-18 19:51:00,,0817.7,5.00,0.00,22.3,20.7,00.0,31.1,24.0,05.1,0000.0,0003.92,0001.83,0000.98
2023-02-18 19:52:00,,0817.8,4.98,0.00,22.2,20.7,00.0,31.1,24.0,05.0,0000.0,0003.89,0001.79,0000.99
2023-02-18 19:53:00,,0817.7,5.02,0.00,22.2,20.6,00.0,31.1,24.0,04.9,0000.0,0003.76,0001.77,0001.00
2023-02-18 19:54:00,,0817.8,5.02,0.00,22.2,20.6,00.0,31.1,24.0,04.5,0000.0,0004.09,0001.81,0001.00
2023-02-18 19:55:00,,0817.8,4.99,0.00,22.2,20.5,00.0,31.1,24.0,04.6,0000.0,0005.07,0001.83,0001.00
2023-02-18 19:56:00,,0817.6,4.98,0.00,22.2,20.5,00.0,31.1,23.9,04.8,0000.0,0006.43,0001.84,0001.00
2023-02-18 19:57:00,,0817.6,5.00,0.00,22.2,20.5,00.0,31.1,23.9,05.0,0000.0,0006.63,0001.87,0001.01
2023-02-18 19:58:00,,0817.7,5.01,0.00,22.2,20.4,00.0,31.1,23.9,04.8,0000.0,0006.74,0001.85,0001.01
2023-02-18 19:59:00,,0817.6,5.00,0.00,22.1,20.4,00.0,31.1,23.9,04.8,0000.0,0006.59,0001.75,0001.00
